Regional Weather Roundup
Issued by NWS Newport/Morehead, NC

Current Version | Previous Version | Text Only | Print | Product List | Glossary Off
Versions: 1 2 3 4 5 6 7 8 9 10 11 12 13 14 15 16 17 18 19 20 21 22 23 24 25 26 27 28 29 30 31 32 33 34 35 36 37 38 39 40 41 42 43 44 45 46 47 48 49 50
000 ASUS42 KMHX 031013 RWRMHX WEATHER ROUNDUP FOR EASTERN NORTH CAROLINA NATIONAL WEATHER SERVICE NEWPORT/MOREHEAD CITY NC 600 AM EDT MON AUG 03 2015 NOTE: "FAIR" INDICATES FEW OR NO CLOUDS BELOW 12,000 FEET WITH NO SIGNIFICANT WEATHER AND/OR OBSTRUCTIONS TO VISIBILITY NCZ015>017-031-032-045>047-102-103-031100- NORTH COAST CITY SKY/WX TMP DP RH WIND PRES REMARKS EDENTON CLEAR 75 72 90 SW6 29.91S ELIZABETH CITY CLEAR 75 73 93 CALM 29.91R KITTY HAWK SUNNY 76 71 84 SW3 29.91R MANTEO CLEAR 77 73 85 W7 29.92R $$ NCZ045>047-081-094-103-104-031100- CENTRAL COAST CITY SKY/WX TMP DP RH WIND PRES REMARKS FRISCO RAIN 73 70 90 W10 29.95R SWANQUARTER N/A 75 N/A N/A SE9 29.88S $$ NCZ095-097-098-100-101-031100- SOUTHERN COAST CITY SKY/WX TMP DP RH WIND PRES REMARKS BEAUFORT RAIN 76 74 93 W15G26 29.94R CEDAR ISLAND N/A 75 N/A N/A SW6G18 29.97S JACKSONVILLE LGT RAIN 73 71 93 SW7 29.93R FOG PINEY ISLAND FLURRIES N/A N/A N/A SW13 29.93R WILMINGTON LGT RAIN 74 71 91 SW5 29.92R $$ NCZ011>013-027>030-043-044-078>080-089-090>093-098-031100- COASTAL PLAIN CITY SKY/WX TMP DP RH WIND PRES REMARKS AHOSKIE FOG 68 67 98 S3 29.91S VSB 3/4 CLINTON PTCLDY 74 74 100 CALM 29.92S ELIZABETHTOWN CLOUDY 74 73 97 CALM 29.92R GOLDSBORO CLEAR 73 72 97 S2 29.89S GREENVILLE CLEAR 72 72 100 S3 29.93S HAVELOCK CLOUDY 75 73 93 SW8 29.94R KENANSVILLE MOCLDY 72 71 95 CALM 29.93S KINSTON PTCLDY 73 71 96 S3 29.93R NEW BERN CLOUDY 75 72 90 SW5 29.94R RICHLANDS MOCLDY 73 68 83 S8 29.93R ROCKY MOUNT CLEAR 71 70 96 CALM 29.91S WASHINGTON MOCLDY 74 72 95 CALM 29.93R WHITEVILLE CLOUDY 75 72 90 S3 29.91S $$ AMZ130-135-150-152-154-156-158-170-250-252-270-ANZ085-086-088-633-658-670-031100- MARINE OBSERVATIONS STATION/POSITION TIME TEMP WIND PRES WAVE SWELL AIR SEA DIR/SP/G HT/PER HT/PER (UTC) (F) (DEG/KT/KT) (MB) (FT/S) (FT/S) CHESAPEAKE LIGHT 1000 76 240/ 13/ 14 1013.0 64 E VA BEACH 0950 81 81 220/ 14/ 16 1012.4 4/ 5 2/11 DUCK 0900 79 74 230/ 11/ 12 1011.8 2 E DUCK 0911 79 N/A 2/12 2/12 OREGON INLET 0900 79 85 260/ 3/ 5 1012.8 13E OREGON INLT 1000 80 N/A 3/12 2/12 HATTERAS CG 0900 75 82 1012.8 DIAMOND BUOY 0950 74 85 260/ 12/ 14 1014.0 4/ 6 3/ 6 CAPE LOOKOUT 1000 77 250/ 15/ 19 1013.5 BEAUFORT LAB 0900 77 82 1012.7 30 SE NEW RVR IN NOT AVBL 27 SE WRIGHTSVLE 0900 76 82 270/ 10/ 14 N/A 5 SE WRIGHTSVLE 0908 81 83 240/ 14/ 17 1012.9 225 S CAPE HAT 0950 82 81 210/ 14/ 17 1015.9 5/ 6 2/11 41 SE CHARLESTON 0950 82 83 210/ 14/ 16 1012.4 5/ 6 3/ 6 $$

USA.gov is the U.S. government's official web portal to all federal, state and local government web resources and services.